Wind_Speed
20 22 23 22 23 24 24 25 25 26 26 26 26 26 27 28 28 28 29 30 30 31 30 30 30 29 29 29 30 31 31 30 29 30 30 30 29 29 28 27 27 27 27
21 22 23 23 24 24 25 26 26 27 27 27 27 27 27 28 29 29 30 30 31 31 31 31 30 30 31 31 31 31 31 31 31 31 30 30 29 29 29 29 28 28 28
22 22 23 23 24 25 26 27 27 28 28 28 28 28 29 29 30 30 31 31 31 31 31 31 31 31 32 31 31 30 31 31 31 31 30 30 29 29 30 30 29 29 29
22 22 23 24 25 26 27 27 28 28 29 30 31 31 31 31 32 32 31 31 31 31 31 31 31 31 32 32 32 33 32 32 32 32 31 31 30 30 31 31 30 30 30
21 22 23 24 25 26 26 27 27 28 28 29 30 31 31 31 32 32 32 32 32 31 31 32 32 32 33 33 34 34 33 33 33 32 32 32 32 32 31 30 30 30 31
21 22 23 24 25 26 27 27 27 27 28 28 29 30 30 31 32 32 32 32 31 31 31 31 31 32 32 33 33 33 33 34 34 33 33 33 32 32 31 31 31 31 30
22 23 24 25 26 27 27 27 28 28 29 29 30 30 30 31 32 32 32 31 31 31 30 31 31 31 32 32 32 32 32 33 33 33 33 33 32 32 31 31 30 31 31
23 24 24 25 26 26 27 27 28 28 29 29 30 30 31 31 31 31 31 31 31 31 31 31 31 32 32 31 31 32 32 32 32 32 32 31 30 30 31 32 31 31 32
23 23 24 25 26 26 26 27 27 28 28 28 29 30 31 31 31 31 30 30 31 31 31 31 31 31 31 31 31 31 31 31 31 32 31 31 31 31 31 31 32 32 32
23 24 25 26 27 27 27 28 28 28 28 29 30 30 30 30 30 30 30 30 30 30 30 30 30 30 30 30 30 29 30 30 30 30 29 29 30 30 30 31 31 32 32
25 26 27 28 28 29 29 29 29 29 29 29 29 29 29 29 29 29 29 29 29 29 29 29 28 28 27 27 27 28 27 27 27 28 27 26 27 28 29 30 30 30 31
26 27 28 28 29 29 29 30 30 29 30 29 29 29 28 28 29 29 29 28 28 28 28 27 26 25 25 24 24 24 25 26 25 25 26 26 26 27 27 27 27 29 29
27 28 28 29 29 30 30 30 30 30 30 29 28 28 28 28 27 27 27 27 26 26 26 25 25 24 23 23 23 23 23 23 23 23 24 24 24 24 24 25 24 25 26
28 29 30 30 31 31 31 30 30 30 30 29 28 27 28 27 26 25 25 25 24 23 23 23 23 22 21 21 21 21 21 20 21 21 21 20 21 21 22 23 23 23 23
29 30 30 31 31 31 31 30 29 28 28 28 27 27 27 25 25 24 23 22 22 22 21 20 20 20 19 19 19 18 19 19 19 20 19 19 19 20 21 22 22 22 22
29 30 30 30 30 30 29 28 27 26 26 26 26 26 25 24 23 22 22 21 20 20 19 18 17 16 16 16 17 17 18 18 18 17 17 18 19 19 19 19 19 20 20
30 30 30 29 29 28 27 26 25 24 24 24 24 23 23 22 21 21 20 19 18 18 18 17 16 15 14 14 15 15 16 16 16 16 16 16 15 16 16 17 18 18 18
29 29 29 28 27 25 24 23 22 22 21 21 21 20 19 18 18 17 18 17 17 16 15 14 14 13 12 13 13 14 14 14 14 14 14 14 14 14 14 14 15 16 17
28 28 27 25 24 23 22 20 19 18 18 17 16 15 15 15 14 13 14 14 14 15 14 13 13 12 11 11 12 12 11 11 11 12 12 13 13 13 13 14 15 16 17
26 25 24 22 21 19 19 17 16 15 14 13 12 12 12 12 12 11 10 11 12 12 13 12 12 11 10 9 10 10 10 10 10 11 12 11 11 12 12 13 14 15 16
23 22 20 19 17 16 15 14 13 12 11 9 9 9 9 9 10 10 9 9 10 11 10 10 10 9 9 8 8 9 9 9 9 10 10 10 10 11 11 11 12 13 14
20 18 16 15 14 13 11 10 9 8 8 7 7 8 8 7 8 9 8 8 8 8 8 8 8 8 8 8 8 9 9 9 9 9 9 8 9 10 10 10 11 11 12
17 15 13 12 10 9 8 7 6 5 5 5 5 6 6 7 7 7 8 7 6 6 6 6 6 6 6 6 6 7 7 7 7 7 7 7 8 9 9 9 10 10 10
13 12 10 8 7 6 5 4 3 1 2 4 5 6 6 7 7 6 5 5 6 6 5 4 4 3 3 4 4 4 5 5 5 5 5 6 6 7 7 7 7 8 8
10 9 7 5 4 4 3 2 0 2 5 5 6 7 6 6 6 5 5 5 5 4 4 3 2 2 2 2 1 1 2 2 3 3 4 4 4 4 5 6 6 6 6
8 6 4 3 2 2 2 2 4 5 7 7 7 7 7 6 6 6 6 6 5 4 4 3 3 3 2 2 2 2 1 1 2 2 2 3 3 4 4 5 5 5 6
Wind_Direction
265 266 271 276 278 278 277 277 278 276 276 276 277 276 274 274 273 275 275 275 272 273 271 270 269 268 266 266 268 269 268 268 268 266 263 262 264 262 262 261 262 264 263
268 267 272 276 276 276 277 277 277 277 277 277 276 275 274 272 272 274 274 275 273 272 272 271 269 269 268 268 269 269 267 267 266 264 261 262 262 261 261 263 263 265 264
267 269 273 275 277 278 278 278 277 276 276 275 274 274 274 274 274 274 274 274 274 274 272 271 270 270 268 266 267 267 266 266 264 263 262 262 261 261 261 262 264 264 264
269 270 272 275 278 279 279 279 278 277 276 275 273 273 273 273 274 273 273 273 273 272 273 272 272 270 268 265 264 265 268 265 264 262 261 261 260 262 261 261 263 264 263
273 274 275 278 279 280 280 279 279 278 277 276 275 274 273 274 274 273 273 273 273 272 273 273 272 270 269 266 265 265 266 264 263 259 259 259 259 259 261 261 260 261 262
278 279 279 280 282 283 282 280 277 277 278 278 277 276 275 274 274 274 274 273 273 273 272 272 272 270 269 267 265 264 264 264 262 260 260 259 259 259 259 260 258 261 263
282 282 282 283 283 284 283 281 279 278 278 277 276 275 275 275 275 274 274 273 272 273 272 272 272 271 270 268 266 264 263 263 261 260 260 258 258 258 257 259 260 260 260
284 283 283 285 286 286 285 284 282 280 279 277 276 275 275 275 274 273 273 272 272 273 273 274 273 271 269 269 267 264 262 262 260 258 259 256 258 258 255 256 259 262 262
284 284 286 288 288 287 287 286 285 283 281 279 278 277 276 275 274 274 274 273 273 273 273 274 273 271 269 269 267 264 262 262 259 257 256 256 257 257 256 256 258 258 260
287 287 289 289 289 288 288 287 286 284 282 281 280 279 277 275 274 274 274 273 274 274 274 275 274 272 270 268 267 266 263 260 257 254 253 255 256 257 258 258 259 258 262
290 291 291 290 290 290 288 287 286 284 283 281 280 279 277 276 275 274 273 273 274 274 274 275 273 272 270 267 266 267 264 259 256 254 254 254 253 256 258 258 258 259 261
292 293 293 292 292 291 289 287 285 284 283 282 281 278 278 278 276 274 273 273 273 272 272 271 270 269 268 267 266 267 264 262 258 256 255 256 258 257 258 260 262 261 261
295 295 295 294 293 292 290 288 286 285 284 283 280 279 278 278 276 274 272 271 272 271 269 267 265 265 265 265 265 265 264 263 262 262 262 262 263 260 259 260 261 263 265
296 296 296 295 294 293 291 290 288 286 283 281 279 277 277 275 273 271 271 270 269 268 266 264 262 263 263 264 265 262 261 264 265 266 266 265 263 263 263 265 267 270 273
297 297 296 296 295 293 291 289 288 285 283 279 277 276 275 273 270 269 269 268 267 265 264 264 262 261 261 263 262 261 264 267 268 265 265 266 267 267 268 271 271 273 275
298 298 297 297 295 293 291 288 286 284 282 279 277 275 274 271 268 266 264 267 266 262 261 264 264 261 259 259 260 262 264 264 266 266 266 268 267 265 268 269 271 274 277
300 299 298 297 295 294 291 287 286 283 281 278 276 273 270 267 264 261 260 261 261 257 256 257 258 259 261 264 263 264 264 266 263 265 267 269 268 266 270 274 277 279 281
300 299 299 298 297 295 293 291 287 283 281 279 276 270 264 260 260 259 258 255 252 251 252 251 255 255 259 264 266 264 266 266 266 266 269 271 272 274 279 282 284 286 289
302 301 300 298 296 294 293 292 288 283 281 280 275 266 259 256 251 256 254 250 246 244 244 246 250 253 258 263 267 266 267 261 262 261 265 271 274 278 283 285 288 291 293
304 302 301 299 296 294 294 291 286 283 281 277 269 260 254 248 245 250 249 247 243 238 238 243 247 250 255 265 262 266 265 266 266 264 268 275 277 281 283 286 289 292 295
306 304 302 300 297 295 294 291 285 281 275 267 257 247 243 236 238 242 242 241 235 232 232 235 240 247 254 261 262 266 267 269 269 272 276 278 283 289 290 291 294 296 298
308 306 303 302 300 298 295 293 288 278 266 261 251 232 225 227 227 224 223 225 223 224 230 234 238 249 254 260 263 269 272 274 278 280 283 287 292 295 295 297 300 302 303
311 309 306 304 303 301 299 296 291 271 251 241 218 204 207 208 208 207 206 205 205 212 220 228 236 249 254 259 266 269 272 275 277 280 283 287 292 297 299 301 304 307 309
316 314 312 308 306 306 312 308 294 253 197 179 179 183 185 180 179 188 184 186 193 202 207 210 224 240 246 254 265 272 275 278 283 287 288 293 300 306 308 311 317 320 321
331 325 320 316 312 311 315 328 318 153 151 154 158 160 162 164 162 161 160 159 162 173 179 184 199 209 221 242 268 282 283 288 297 303 309 318 326 330 332 334 338 342 345
347 349 345 344 350 360 40 89 112 125 128 128 137 146 145 142 144 147 141 138 142 144 146 148 146 140 136 129 112 98 74 38 22 19 12 9 8 7 7 8 9 8 7
Height
5828 5829 5828 5829 5830 5831 5831 5831 5832 5833 5833 5833 5833 5833 5834 5834 5834 5834 5834 5834 5835 5836 5837 5838 5838 5839 5841 5842 5842 5843 5844 5845 5845 5846 5847 5848 5849 5850 5852 5853 5854 5855 5856
5825 5826 5825 5826 5826 5827 5827 5827 5827 5827 5827 5827 5827 5828 5828 5828 5828 5829 5829 5829 5829 5829 5830 5831 5832 5833 5834 5835 5835 5836 5837 5838 5838 5839 5840 5842 5844 5844 5846 5847 5848 5849 5850
5822 5822 5822 5823 5823 5822 5822 5822 5821 5821 5821 5821 5821 5821 5821 5822 5822 5822 5822 5822 5823 5823 5824 5824 5825 5826 5826 5827 5828 5829 5830 5830 5831 5832 5833 5835 5837 5838 5840 5840 5842 5843 5843
5818 5818 5818 5818 5818 5817 5817 5816 5816 5816 5815 5815 5815 5815 5815 5815 5815 5815 5816 5816 5816 5816 5817 5817 5818 5819 5819 5820 5821 5822 5823 5823 5824 5825 5826 5828 5830 5831 5833 5834 5835 5836 5837
5814 5814 5814 5813 5813 5812 5812 5811 5810 5810 5809 5808 5808 5808 5808 5808 5808 5808 5808 5809 5809 5809 5810 5810 5811 5811 5811 5812 5813 5814 5815 5816 5817 5818 5819 5820 5822 5824 5826 5827 5828 5830 5831
5810 5809 5809 5808 5808 5807 5806 5805 5805 5804 5803 5802 5802 5801 5801 5801 5801 5801 5801 5801 5802 5802 5802 5802 5803 5803 5804 5805 5805 5807 5808 5809 5810 5811 5812 5814 5815 5816 5818 5820 5821 5822 5824
5805 5805 5804 5803 5803 5801 5800 5799 5799 5798 5797 5796 5795 5795 5794 5794 5794 5794 5794 5794 5794 5794 5795 5795 5795 5795 5796 5797 5797 5798 5800 5801 5802 5804 5805 5807 5807 5809 5811 5812 5814 5815 5817
5801 5800 5799 5798 5797 5796 5794 5793 5792 5791 5790 5789 5788 5788 5787 5786 5786 5786 5786 5786 5787 5787 5787 5787 5787 5788 5788 5789 5790 5791 5792 5793 5795 5796 5797 5799 5801 5802 5804 5806 5807 5808 5809
5796 5795 5794 5792 5791 5790 5788 5787 5785 5784 5783 5782 5781 5780 5780 5779 5778 5778 5778 5778 5779 5779 5779 5779 5779 5780 5780 5781 5782 5783 5784 5786 5787 5789 5790 5792 5793 5795 5796 5798 5800 5802 5802
5791 5790 5788 5787 5785 5783 5782 5780 5778 5777 5776 5774 5774 5773 5772 5771 5771 5771 5770 5770 5771 5771 5771 5771 5772 5772 5773 5773 5774 5775 5777 5778 5780 5781 5783 5785 5786 5788 5789 5790 5792 5793 5794
5786 5784 5782 5780 5778 5777 5775 5773 5771 5770 5768 5767 5766 5765 5764 5763 5763 5763 5763 5763 5764 5764 5764 5764 5764 5765 5765 5766 5768 5769 5770 5771 5773 5774 5776 5777 5779 5781 5782 5783 5785 5786 5787
5780 5778 5776 5773 5771 5769 5767 5765 5763 5762 5760 5759 5758 5757 5756 5756 5755 5755 5755 5755 5756 5756 5757 5757 5757 5758 5759 5760 5761 5763 5764 5766 5767 5768 5770 5771 5773 5774 5776 5777 5778 5779 5780
5774 5771 5769 5767 5764 5761 5759 5757 5755 5753 5752 5751 5750 5749 5748 5748 5747 5747 5747 5748 5749 5749 5750 5750 5751 5752 5753 5754 5756 5757 5758 5760 5761 5763 5764 5766 5767 5768 5770 5771 5772 5773 5774
5767 5765 5762 5759 5756 5753 5751 5749 5746 5745 5743 5742 5742 5741 5741 5740 5740 5740 5741 5741 5742 5743 5743 5744 5745 5747 5748 5749 5750 5752 5753 5755 5756 5758 5759 5760 5762 5763 5764 5765 5766 5767 5768
5760 5757 5754 5751 5748 5745 5742 5740 5738 5736 5735 5734 5734 5733 5733 5733 5733 5734 5735 5735 5736 5737 5738 5739 5740 5741 5743 5744 5745 5747 5748 5750 5751 5753 5754 5755 5757 5758 5759 5761 5762 5762 5763
5753 5750 5746 5743 5740 5737 5734 5732 5730 5728 5727 5726 5726 5726 5726 5726 5726 5727 5728 5730 5731 5732 5733 5735 5736 5737 5738 5740 5741 5743 5744 5745 5747 5748 5749 5751 5752 5753 5754 5755 5756 5757 5758
5745 5742 5738 5735 5732 5729 5726 5724 5722 5721 5720 5719 5719 5718 5718 5719 5720 5721 5723 5724 5726 5727 5729 5730 5732 5733 5734 5736 5737 5739 5740 5741 5743 5744 5745 5747 5748 5749 5750 5750 5751 5752 5753
5738 5734 5730 5727 5724 5721 5718 5717 5715 5714 5713 5713 5712 5712 5713 5714 5715 5716 5718 5720 5721 5723 5725 5727 5729 5730 5731 5733 5734 5736 5737 5738 5739 5741 5742 5743 5744 5745 5746 5746 5747 5747 5748
5730 5726 5723 5720 5717 5714 5712 5710 5709 5708 5708 5707 5707 5708 5708 5709 5711 5713 5714 5716 5718 5720 5722 5723 5725 5727 5729 5730 5731 5733 5734 5735 5736 5738 5739 5740 5741 5741 5742 5742 5743 5743 5743
5723 5719 5716 5713 5711 5708 5707 5705 5704 5704 5703 5703 5703 5704 5705 5706 5708 5710 5711 5713 5715 5717 5719 5721 5723 5725 5727 5728 5729 5730 5732 5733 5734 5735 5736 5737 5737 5738 5738 5738 5739 5739 5739
5716 5713 5710 5708 5706 5704 5702 5701 5700 5700 5700 5700 5701 5701 5703 5704 5706 5707 5709 5711 5713 5715 5717 5719 5721 5723 5725 5726 5727 5728 5729 5730 5731 5732 5733 5733 5734 5734 5735 5735 5735 5735 5734
5711 5708 5706 5704 5702 5700 5699 5698 5697 5697 5697 5698 5698 5700 5701 5703 5704 5706 5708 5710 5712 5714 5716 5718 5720 5721 5723 5724 5725 5726 5727 5728 5729 5729 5730 5730 5731 5731 5731 5731 5731 5731 5730
5707 5704 5702 5701 5699 5698 5697 5696 5696 5696 5696 5696 5697 5699 5700 5702 5704 5705 5707 5709 5711 5713 5715 5717 5719 5720 5721 5722 5723 5724 5725 5726 5726 5727 5727 5728 5728 5728 5728 5728 5728 5728 5727
5704 5702 5700 5699 5698 5697 5696 5696 5695 5695 5696 5696 5698 5699 5700 5702 5704 5706 5707 5709 5711 5713 5715 5716 5718 5719 5720 5721 5722 5723 5724 5724 5725 5725 5726 5726 5726 5726 5726 5726 5726 5725 5725
5702 5700 5699 5698 5697 5697 5696 5696 5696 5696 5696 5697 5698 5700 5702 5703 5705 5707 5708 5710 5711 5713 5715 5716 5718 5719 5720 5720 5721 5722 5723 5723 5723 5724 5724 5724 5724 5724 5724 5724 5724 5724 5723
5702 5700 5699 5698 5698 5697 5697 5697 5697 5697 5698 5699 5700 5702 5704 5705 5706 5708 5710 5711 5713 5714 5715 5716 5718 5719 5720 5720 5721 5722 5722 5723 5723 5723 5723 5724 5724 5724 5724 5724 5724 5723 5723